OBJECT J, 63990

Orbit data source: Space-Track

You're viewing an Uncataloged Satellite

Recently launched and/or uncataloged satellites may have evolving metadata. Metadata may include but not limited to: Owner, Maufacturer, Bus, Motor, and Mission.

OBJECT J, 63990 is a Chinese satellite in SSO that was launched on Wed, 14 May 2025 UTC via a CHANG ZHENG 2D launch vehicle from the Jiuquan Satellite Launch Center, China (JSC). Unknown objects in Earth's orbit typically refer to objects detected orbiting the Earth but have not yet been identified or cataloged. These objects could be anything from previously untracked satellites, spent rocket stages, debris from satellite collisions, or even natural meteoroids temporarily captured by Earth's gravity.

Loading next visibility...
Identifier
63990, 2025-100J
Orbit
SSO
Country
Flag of CNCN / PRC
Related business
None
Manufacturer
Unknown
Mission
Operational Commercial Technology
Bus & Motor
Unknown
Mass
Unknown
Launch date (UTC)
2025-05-14 (1 year ago)
Launch vehicle
CHANG ZHENG 2D
Launch site
Jiuquan Satellite Launch Center, China (JSC)
Object type
Unknown
Shape & HBR
Box + 2 Pan, 1.1 m
Radar Cross Section
0.135 m², Large (>1 m²)

Expand to show TLE details & history
Last TLE update: 18 hours ago

TLE from 18 hours ago
0 OBJECT J
1 63990U 25100J   26202.49211512  .00032088  00000-0  10233-2 0  9994
2 63990  97.3607 278.0128 0010439 157.8776 202.2919 15.32403273 66060
Epoch: 2026-07-21T11:48Z
TLE epoch observation values (Epoch: 2026-07-21T11:48:38.746Z)
Latitude
0.00003°
Longitude
161.59032°
Altitude
478.369 km
Speed
7.623 km/s
True Right ascension
18h 32m 03s
True Declination
0° 00' 00"
Sunlit
Object was in full shadow at epoch
Visualization orbit readout
Latitude
Unknown
Longitude
Unknown
Altitude
Unknown
Speed
Unknown
Apparent Right ascension
Unknown
Apparent Declination
Unknown
Sunlit
N/A
Visualization observer readout
Local Sidereal Time
18:21:04
Azimuth
Unknown
Elevation
Unknown
Doppler factor
Unknown
Orbital elements
Apogee altitude
472.736 km
Perigee altitude
458.448 km
Semi-major axis
6,843.729 km
Eccentricity
0.00104
Inclination
97.3607°
RAAN
278.0128°
Arg. of periapsis
157.8776°
True anomaly
202.24658°
Mean anomaly
202.2919°
Eccentric anomaly
202.26923°
Mean motion
3.83358 °/min
Orbital period
93.91 mins
BSTAR
0.0010233
Loading maneuver chart data...
Computing Atmospheric mass density...
Loading historical data...
Loading historical data...
Loading historical data...
Loading historical data...
Loading historical data...
Loading historical data...
Loading historical data...

Documentation

Showing up to 5 results
|